TimeCDT,TemperatureF,Dew PointF,Humidity,Sea Level PressureIn,VisibilityMPH,Wind Direction,Wind SpeedMPH,Gust SpeedMPH,PrecipitationIn,Events,Conditions,WindDirDegrees,DateUTC
12:58 AM,74.8,64.2,69,29.93,10.0,ESE,2.3,-,N/A,,Clear,120,2013-09-08 05:58:00
1:58 AM,72.9,63.3,72,29.93,10.0,ENE,4.6,-,N/A,,Clear,70,2013-09-08 06:58:00
2:58 AM,72.5,63.5,73,29.93,10.0,ESE,3.5,-,N/A,,Clear,110,2013-09-08 07:58:00
3:58 AM,72.1,62.8,72,29.93,10.0,SE,2.3,-,N/A,,Clear,140,2013-09-08 08:58:00
4:58 AM,71.6,61.7,71,29.93,10.0,East,3.5,-,N/A,,Clear,100,2013-09-08 09:58:00
5:58 AM,70.3,62.1,75,29.93,10.0,East,2.3,-,N/A,,Clear,100,2013-09-08 10:58:00
6:58 AM,69.6,61.9,76,29.94,10.0,East,2.3,-,N/A,,Clear,100,2013-09-08 11:58:00
7:58 AM,70.0,62.6,77,29.96,10.0,ESE,3.5,-,N/A,,Clear,120,2013-09-08 12:58:00
8:58 AM,77.7,63.5,61,29.96,10.0,SSE,5.8,-,N/A,,Clear,160,2013-09-08 13:58:00
9:58 AM,82.2,64.9,56,29.96,10.0,SE,6.9,-,N/A,,Clear,140,2013-09-08 14:58:00
10:58 AM,87.8,65.7,48,29.96,10.0,South,5.8,-,N/A,,Clear,180,2013-09-08 15:58:00
11:58 AM,92.5,63.5,38,29.94,10.0,South,12.7,-,N/A,,Clear,180,2013-09-08 16:58:00
12:58 PM,94.5,60.6,32,29.92,10.0,SE,5.8,-,N/A,,Clear,140,2013-09-08 17:58:00
1:58 PM,96.3,57.0,27,29.90,10.0,South,10.4,16.1,N/A,,Clear,180,2013-09-08 18:58:00
2:35 PM,96.8,57.2,27,29.94,10.0,SE,16.1,21.9,N/A,,Clear,130,2013-09-08 19:35:00
2:58 PM,97.9,55.9,25,29.89,10.0,SSE,6.9,20.7,N/A,,Clear,150,2013-09-08 19:58:00
3:24 PM,98.6,55.4,24,29.92,10.0,South,12.7,20.7,N/A,,Clear,170,2013-09-08 20:24:00
3:56 PM,98.6,55.4,24,29.91,10.0,ESE,12.7,19.6,N/A,,Clear,110,2013-09-08 20:56:00
3:58 PM,98.6,55.4,24,29.86,10.0,East,11.5,19.6,N/A,,Clear,100,2013-09-08 20:58:00
4:00 PM,98.6,55.4,24,29.91,10.0,SSE,17.3,26.5,N/A,,Clear,160,2013-09-08 21:00:00
4:01 PM,98.6,55.4,24,29.91,10.0,South,15.0,26.5,N/A,,Clear,170,2013-09-08 21:01:00
4:11 PM,98.6,55.4,24,29.91,10.0,ESE,15.0,-,N/A,,Clear,120,2013-09-08 21:11:00
4:37 PM,98.6,55.4,24,29.90,10.0,SSE,13.8,23.0,N/A,,Clear,160,2013-09-08 21:37:00
4:58 PM,97.5,55.8,25,29.84,10.0,SE,11.5,-,N/A,,Clear,130,2013-09-08 21:58:00
5:58 PM,97.2,55.4,25,29.83,10.0,SSE,15.0,-,N/A,,Clear,150,2013-09-08 22:58:00
6:58 PM,95.2,53.8,25,29.83,10.0,SSE,19.6,-,N/A,,Clear,150,2013-09-08 23:58:00
7:58 PM,90.3,54.7,30,29.85,10.0,SSE,8.1,-,N/A,,Clear,150,2013-09-09 00:58:00
8:58 PM,84.7,54.7,36,29.86,10.0,SE,8.1,-,N/A,,Clear,140,2013-09-09 01:58:00
9:58 PM,81.5,55.6,41,29.88,10.0,SE,8.1,-,N/A,,Clear,130,2013-09-09 02:58:00
10:58 PM,81.3,58.1,45,29.89,10.0,SE,12.7,-,N/A,,Clear,140,2013-09-09 03:58:00
11:58 PM,79.9,59.5,50,29.89,10.0,SSE,10.4,-,N/A,,Clear,150,2013-09-09 04:58:00